GSAT0215 (GALILEO 19)

Last updated on July 11, 2020, 5:25 a.m. UTC

1 43055U 17079A   20191.41532256 -.00000037  00000-0  00000-0 0  9993
2 43055  56.2504 281.1964 0002742 242.6020 117.4285  1.70474564 16017
UTC
Height (km)
Latitude
Longitude
Inclination
Orbital Period
UTC large
Height (km)
Speed (km/s)
/
Latitude / Longitude
Inclination (degrees)
Orbital Period (minutes)
Azimuth
Elevation
Range (km)
Doppler Factor
iOS Compass Heading
iOS Angle

Next 30 passes for location: Hong Kong

Rise time Rise Azimuth (degrees) Set time Set Azimuth (degrees) Duration Max altitude (degrees)

No matching passes for this satellites